This demonstration page uses our WeatherBlox Daily Observations layout. Learn more.

Left ArrowRight Arrow

40.92945, -100.16068

Hourly Observations for September 27, 2016

Temp ( °F °C ) Dew Point ( °F °C ) Humidity (%) Winds ( mph kmh ) Pressure ( in mb ) Visibility ( mi km ) Precip ( " mm )
12:15 am 00:15 Clear 48 8.9 42 5.6 80 80 NW 3 6 30.15 1021 10 16 N/A
12:35 am 00:35 Clear 47 8.5 42 5.6 82 82 WNW 6 9 30.15 1021 10 16 N/A
12:55 am 00:55 Clear 46 7.8 41 5.2 84 84 W 5 7 30.18 1022 10 16 N/A
1:15 am 01:15 Clear 47 8.2 42 5.5 83 83 WNW 6 9 30.15 1021 10 16 N/A
1:35 am 01:35 Clear 46 7.6 42 5.4 86 86 WNW 5 7 30.18 1022 10 16 N/A
1:55 am 01:55 Clear 46 7.6 41 5.1 84 84 WNW 3 6 30.18 1022 10 16 N/A
2:15 am 02:15 Clear 45 7.4 42 5.4 87 87 WNW 7 11 30.18 1022 10 16 N/A
2:35 am 02:35 Clear 46 7.9 42 5.4 84 84 WNW 7 11 30.18 1022 10 16 N/A
2:55 am 02:55 Clear 45 7.1 41 5 87 87 WNW 6 9 30.18 1022 10 16 N/A
3:15 am 03:15 Clear 45 7.1 41 5.2 88 88 W 7 11 30.18 1022 10 16 N/A
3:35 am 03:35 Clear 45 7 41 5 87 87 WNW 6 9 30.15 1021 10 16 N/A
3:55 am 03:55 Clear 43 6.1 40 4.5 90 90 WNW 7 11 30.15 1021 10 16 N/A
4:15 am 04:15 Clear 44 6.9 41 4.9 87 87 W 5 7 30.15 1021 10 16 N/A
4:35 am 04:35 Clear 43 6.3 40 4.6 89 89 W 6 9 30.15 1021 10 16 N/A
4:55 am 04:55 Clear 42 5.6 39 3.9 89 89 WNW 5 7 30.15 1021 10 16 N/A
5:15 am 05:15 Clear 42 5.5 39 4 90 90 WNW 6 9 30.15 1021 10 16 N/A
5:35 am 05:35 Clear 43 6 40 4.2 88 88 W 5 7 30.15 1021 10 16 N/A
5:55 am 05:55 Clear 43 6 40 4.2 88 88 WNW 6 9 30.15 1021 10 16 N/A
6:15 am 06:15 Clear 44 6.7 40 4.7 87 87 WNW 8 13 30.15 1021 10 16 N/A
6:35 am 06:35 Clear 44 6.6 40 4.5 87 87 WNW 8 13 30.15 1021 10 16 N/A
6:55 am 06:55 Clear 43 6.2 40 4.2 87 87 WNW 6 9 30.15 1021 10 16 N/A
7:15 am 07:15 Clear 43 6 40 4.4 90 90 WNW 7 11 30.15 1021 10 16 N/A
7:35 am 07:35 Sunny 43 6 40 4.3 89 89 WNW 8 13 30.15 1021 10 16 N/A
7:55 am 07:55 Sunny 43 6.2 40 4.5 89 89 WNW 6 9 30.15 1021 10 16 N/A
8:15 am 08:15 Sunny 45 7 41 5.1 88 88 W 6 9 30.15 1021 10 16 N/A
8:35 am 08:35 Sunny 46 7.7 42 5.6 87 87 W 7 11 30.12 1020 10 16 N/A
8:55 am 08:55 Sunny 49 9.7 44 6.5 81 81 WNW 6 9 30.12 1020 10 16 N/A
9:15 am 09:15 Sunny 52 11.2 44 6.7 74 74 WNW 6 9 30.09 1019 10 16 N/A
9:35 am 09:35 Sunny 55 12.6 46 7.5 71 71 WNW 5 7 30.09 1019 10 16 N/A
9:55 am 09:55 Sunny 58 14.2 45 7.2 63 63 NW 5 7 30.06 1018 10 16 N/A
10:15 am 10:15 Sunny 60 15.8 46 7.8 59 59 WNW 5 7 30.06 1018 10 16 N/A
10:35 am 10:35 Sunny 64 17.7 46 7.8 53 53 WNW 6 9 30.03 1017 10 16 N/A
10:55 am 10:55 Sunny 67 19.2 47 8.1 49 49 W 7 11 30.03 1017 10 16 N/A
11:15 am 11:15 Sunny 69 20.4 45 7.4 43 43 WNW 6 9 30.00 1016 10 16 N/A
11:35 am 11:35 Sunny 71 21.8 44 6.8 38 38 WNW 6 9 29.97 1015 10 16 N/A
11:55 am 11:55 Sunny 73 22.5 41 5 32 32 W 5 7 29.97 1015 10 16 N/A
12:15 pm 12:15 Sunny 74 23.2 42 5.4 32 32 WNW 7 11 29.94 1014 10 16 N/A
12:35 pm 12:35 Sunny 75 24 42 5.8 31 31 NW 9 15 29.91 1013 10 16 N/A
12:55 pm 12:55 Sunny 76 24.5 42 5.8 30 30 WSW 3 6 29.91 1013 10 16 N/A
1:15 pm 13:15 Sunny 77 25.2 43 6.2 30 30 W 9 15 29.91 1013 10 16 N/A
1:35 pm 13:35 Sunny 78 25.6 44 6.7 30 30 NW 8 13 29.91 1013 10 16 N/A
1:55 pm 13:55 Sunny 79 26.3 44 6.6 29 29 NW 12 19 29.91 1013 10 16 N/A
2:15 pm 14:15 Sunny 80 26.7 44 6.5 28 28 WNW 9 15 29.88 1012 10 16 N/A
2:35 pm 14:35 Sunny 81 27.3 45 7.1 28 28 NW 8 13 29.85 1011 10 16 N/A
2:55 pm 14:55 Sunny 82 27.8 45 7 27 27 WNW 12 19 29.85 1011 10 16 N/A
3:15 pm 15:15 Sunny 83 28.2 45 7 26 26 W 6 9 29.83 1010 10 16 N/A
3:35 pm 15:35 Sunny 83 28.5 44 6.5 25 25 WNW 9 15 29.83 1010 10 16 N/A
3:55 pm 15:55 Sunny 84 29 45 7.1 25 25 NW 6 9 29.83 1010 10 16 N/A
4:15 pm 16:15 Sunny 84 29.1 44 6.6 24 24 WNW 12 19 29.80 1009 10 16 N/A
4:35 pm 16:35 Sunny 84 29.1 44 6.4 24 24 NW 13 20 29.80 1009 10 16 N/A
4:55 pm 16:55 Sunny 85 29.2 41 5.1 22 22 WNW 13 20 29.80 1009 10 16 N/A
5:35 pm 17:35 Sunny 84 29.1 42 5.3 22 22 W 12 19 29.80 1009 10 16 N/A
5:55 pm 17:55 Sunny 84 29 41 5.2 22 22 WNW 10 17 29.77 1008 10 16 N/A
6:15 pm 18:15 Sunny 83 28.3 43 6.2 25 25 WNW 9 15 29.77 1008 10 16 N/A
6:35 pm 18:35 Sunny 81 27.3 44 6.5 27 27 WNW 8 13 29.77 1008 10 16 N/A
6:55 pm 18:55 Sunny 78 25.6 46 7.5 32 32 WNW 7 11 29.80 1009 10 16 N/A
7:15 pm 19:15 Sunny 74 23.4 47 8.3 38 38 WNW 6 9 29.80 1009 10 16 N/A
7:35 pm 19:35 Clear 72 22 46 7.7 40 40 NW 7 11 29.83 1010 10 16 N/A
7:55 pm 19:55 Clear 70 21 46 7.7 42 42 NW 7 11 29.83 1010 7 11 N/A
8:15 pm 20:15 Clear 64 18 47 8.6 54 54 NW 6 9 29.88 1012 7 11 N/A
8:35 pm 20:35 Clear 62 16.6 48 8.8 60 60 N 6 9 29.88 1012 10 16 N/A
8:55 pm 20:55 Clear 58 14.4 48 8.9 70 70 N 6 9 29.91 1013 7 11 N/A
9:15 pm 21:15 Clear 59 15 47 8.3 64 64 NNW 3 6 29.94 1014 10 16 N/A
9:35 pm 21:35 Clear 58 14.2 47 8.1 67 67 Calm 29.94 1014 7 11 N/A
9:55 pm 21:55 Clear 57 14.1 47 8.1 67 67 Calm 29.94 1014 7 11 N/A
10:15 pm 22:15 Hazy 56 13.5 47 8.2 71 71 W 3 6 29.94 1014 5 8 N/A
10:35 pm 22:35 Clear 55 12.7 46 7.8 72 72 W 7 11 29.97 1015 7 11 N/A
10:55 pm 22:55 Clear 54 12 45 7.2 73 73 W 7 11 30.00 1016 10 16 N/A
11:15 pm 23:15 Clear 53 11.8 45 7.3 74 74 W 7 11 30.00 1016 10 16 N/A
11:35 pm 23:35 Clear 54 12.1 45 7.2 72 72 W 3 6 30.00 1016 10 16 N/A
11:55 pm 23:55 Clear 53 11.5 45 7.1 75 75 W 6 9 30.00 1016 10 16 N/A

Powered by AerisWeather